Regional Weather Roundup
Issued by NWS

Home | Current Version | Previous Version | Graphics & Text | Print | Product List | Glossary On
Versions: 1 2 3 4 5 6 7 8 9 10 11 12 13 14 15 16 17 18 19 20 21 22 23 24 25 26 27 28 29 30 31 32 33 34 35 36 37 38 39 40 41 42 43 44 45 46 47 48 49 50
000
ASUS43 KMKX 242300
RWRWI

WISCONSIN REGIONAL WEATHER ROUNDUP
NATIONAL WEATHER SERVICE MILWAUKEE/SULLIVAN WI
600 PM CDT FRI OCT 24 2014

NOTE: "FAIR" INDICATES FEW OR NO CLOUDS BELOW 12,000 FEET WITH NO
SIGNIFICANT WEATHER AND/OR OBSTRUCTIONS TO VISIBILITY.

WIZ001-002-006>008-014>016-023>028-250000-
NORTHWEST WISCONSIN

CITY           SKY/WX    TMP DP  RH WIND       PRES   REMARKS
SUPERIOR ARPT  CLEAR     66  52  60 SW13G20   29.75R
ASHLAND        CLEAR     60  52  74 SW14      29.78S
HAYWARD        CLOUDY    58  51  78 S12       29.83S
SIREN          MOCLDY    60  52  76 S7        29.82F
CUMBERLAND     CLOUDY    55  52  88 SW6       29.85S
RICE LAKE      CLOUDY    58  53  84 S8        29.86S
CHETEK         CLOUDY    57  54  88 S5        29.86S
LADYSMITH      CLOUDY    58  51  79 S6        29.88S
EAU CLAIRE     NOT AVBL
MENOMONIE      CLOUDY    58  56  95 S5        29.88R FOG
NEW RICHMOND   MOCLDY    57  55  92 S5        29.85F FOG
OSCEOLA        MOCLDY    59  57  94 S6        29.86F
$$

WIZ003>005-009-010-017-018-250000-
NORTH CENTRAL WISCONSIN

CITY           SKY/WX    TMP DP  RH WIND       PRES   REMARKS
MANITOWISH WTR CLOUDY    59  48  66 SW13G20   29.82F
ARBOR VITAE    CLOUDY    58  49  71 SW7       29.84S
WOODRUFF       CLOUDY    58  49  71 SW7       29.84S
RHINELANDER    CLOUDY    56  45  66 SW9       29.87S
EAGLE RIVER    MOCLDY    57  42  57 S6        29.84S
LAND O LAKES   PTCLDY    58  43  56 S6        29.84S
PHILLIPS       CLOUDY    56  49  76 SW10      29.85S
TOMAHAWK       CLOUDY    55  47  73 CALM      29.88S
MEDFORD        CLOUDY    55  49  80 SW3       29.87S
MERRILL        CLOUDY    56  49  76 SW6       29.88R
$$

WIZ029-030-035-036-043>047-250000-
CENTRAL WISCONSIN

CITY           SKY/WX    TMP DP  RH WIND       PRES   REMARKS
WAUSAU         CLOUDY    56  48  74 S5        29.86F
MOSINEE        CLOUDY    55  52  88 S6        29.89S
MARSHFIELD     CLOUDY    58  51  78 S7        29.88R
STEVENS POINT  CLOUDY    55  49  79 S3        29.90R
WAUPACA        MOCLDY    56  52  85 SE5       29.90F
WAUTOMA        NOT AVBL
WISC RAPIDS    CLOUDY    58  50  75 S5        29.90R
CAMP DOUGLAS   NOT AVBL
$$

WIZ011>013-019>022-031-037>040-048>050-250000-
NORTHEAST WISCONSIN

CITY           SKY/WX    TMP DP  RH WIND       PRES   REMARKS
ANTIGO         MOCLDY    52  49  88 S5        29.88S
SHAWANO        CLOUDY    55  49  80 CALM      29.90F
OCONTO         CLEAR     50  49  98 S6        29.90S
STURGEON BAY   CLEAR     52  46  82 S8        29.92S
GREEN BAY      MOCLDY    52  49  89 S5        29.91S FOG
MANITOWOC      NOT AVBL
APPLETON       MOCLDY    52  48  87 VRB5      29.91F
CLINTONVILLE   CLOUDY    54  50  87 S6        29.89F
OSHKOSH        CLOUDY    54  50  86 S5        29.91S
$$

WIZ032>034-041-042-053>061-250000-
SOUTHWEST WISCONSIN

CITY           SKY/WX    TMP DP  RH WIND       PRES   REMARKS
LA CROSSE      CLOUDY    61  56  83 SW8       29.89R
SPARTA         CLOUDY    61  54  75 SW8       29.89R
VIROQUA        CLOUDY    57  57 100 SW7       29.90S
BOSCOBEL       CLOUDY    60  57  89 S5        29.91R FOG
PRAIRIE DU CHI CLOUDY    60  56  88 CALM      29.90S
PLATTEVILLE    CLOUDY    60  55  82 S5        29.92R
$$

WIZ056-057-062-063-064-067-068-250000-
SOUTH CENTRAL WISCONSIN

CITY           SKY/WX    TMP DP  RH WIND       PRES   REMARKS
REEDSBURG      CLOUDY    60  51  72 S6        29.89S
BARABOO/DELLS  CLOUDY    60  49  67 S8        29.89S
LONE ROCK      NOT AVBL
MINERAL POINT  CLOUDY    61  54  77 S3        29.92R
MADISON        MOCLDY    60  50  69 S8        29.90F
MIDDLETON      CLOUDY    61  50  67 S6        29.90F
WATERTOWN      PTCLDY    55  51  86 S5        29.92S
MONROE         MOCLDY    59  50  72 S7        29.91F
JANESVILLE     NOT AVBL
$$

WIZ051-052-058>065-066-070>072-250000-
SOUTHEAST WISCONSIN

CITY           SKY/WX    TMP DP  RH WIND       PRES   REMARKS
MILWAUKEE      MOCLDY    58  48  69 SW5       29.94S
WAUKESHA       CLEAR     55  48  76 S5        29.95F
MILWAUKEE/TIMM MOCLDY    59  46  63 SW7       29.94F
RACINE         PTCLDY    52  49  89 S8        29.96F FOG
BURLINGTON     CLEAR     55  49  81 CALM      29.94S
KENOSHA        PTCLDY    54  50  86 SE5       29.95S
FOND DU LAC    CLOUDY    55  50  83 S6        29.91S
SHEBOYGAN      CLEAR     54  49  83 SE3       29.92S
WEST BEND      PTCLDY    57  46  67 S3        29.92F
JUNEAU         PTCLDY    54  49  86 SE6       29.93S
$$

LSZ147-162-250000-
LAKE SUPERIOR

STATION/POSITION TIME  TEMP    WIND        PRES    WAVE
                       AIR SEA DIR/SP/G            HT/PER
                 (UTC) (F)     (DEG/KT/KT) (MB)    (FT/S)
W MID LAKE BUOY  2150   49 47   CALM  /  2 1007.2F   1
DEVILS ISLAND    2200   57     160/  4/  5 1007.0F
PORT WING        2200   68     190/ 15/ 20 1007.1F
SAXON HARBOR     2200   68     210/ 12/ 16 1007.8S
$$

LMZ867-665-643>646-250000-
LAKE MICHIGAN

STATION/POSITION TIME  TEMP    WIND        PRES    WAVE
                       AIR SEA DIR/SP/G            HT/PER
                 (UTC) (F)     (DEG/KT/KT) (MB)    (FT/S)
CHAMBERS ISLAND  2200   52     190/  4/  7 1012.9S
N MID LAKE BUOY  2150   49 51  200/ 16/ 17 1013.1S   2/ 4
NORTHPORT PIER   2200   53     160/  5/  7 1012.5F
SISTER BAY       2213          190/  6/  7   N/A
ALGOMA LAKESHORE 2156          230/ 17/ 20   N/A
KEWAUNEE LAKESHO 2200   50     180/ 15/ 17 1012.4F
SHEBOYGAN LAKESH 2200   51 51  160/ 12/ 14 1013.9F
PORT WASHINGTON  2200   54     180/  5/  7 1014.2F
ATWATER BUOY     2200   53     150/ 10/ 14 1014.8F
MILWAUKEE LAKESH 2200   52     140/ 11/ 12   N/A
S MID LAKE BUOY  2150   53 54  180/  4/  6 1015.0F
KENOSHA   LAKESH 2200   53     170/  8/  9 1014.2F
$$

TC  - TEMPERATURE IN CELSIUS
VSB - VISIBILITY IN STATUTE MILES
WCI - WIND CHILL INDEX
HX  - HEAT INDEX




USA.gov is the U.S. government's official web portal to all federal, state and local government web resources and services.